[[{"header":{"parameterUnit":"m.s-1","parameterCategory":2,"la1":30.2991,"la2":30.254,"lo1":-89.0895,"lo2":-89.0444,"dy":0.0017,"dx":0.0017,"nx":28,"ny":28,"refTime":"2025-03-17T21:00:00:Z","depth":"0","parameterNumber":2,"parameterNumberName":"U-component_of_CURRENTS"},"data":[0,0,0,0,0,0,0,0,0,0,0,0,0,0,0,0,0,0,0,0,0,0,0,0,0,0,0,0,0,0,0,0,0,0,0,0,0,0,0,0,0,0,0,0,0,0,0,0,0,0,0,0,0,0,0,0,0,0,0.2972,0.2973,0,0.3015,0.3015,0.3015,0.2968,0.2967,0.2966,0.2964,0.2985,0.2987,0.2988,0,0,0,0,0,0,0,0,0,0,0,0,0,0.287,0.2871,0.2972,0.2973,0.2974,0.3015,0.3015,0.3015,0.2968,0.2967,0.2965,0.2964,0.2985,0.2987,0.2989,0,0,0,0,0,0,0,0,0,0,0,0,0,0.2908,0.2872,0.2972,0.296,0.296,0.3015,0.3015,0.3015,0.2969,0.2967,0.2965,0.2963,0.2984,0.2986,0.2989,0.3042,0,0,0.2997,0.2998,0,0,0,0,0,0,0,0,0.2906,0.2911,0.2961,0.2961,0.2961,0.2989,0.2986,0.3025,0.2969,0.2959,0.2964,0.2962,0.299,0.2992,0.2996,0.3043,0.3044,0.2997,0.2998,0.3,0.3,0,0,0,0,0,0,0,0.2903,0.2909,0.2983,0.2962,0.2963,0.296,0.2962,0.2993,0.2979,0.296,0.2958,0.2973,0.2989,0.2993,0.2996,0.3044,0.2997,0.2999,0.3001,0.3002,0.323,0.3234,0,0,0,0,0,0,0.2911,0.2907,0.2982,0.2985,0.2935,0.2964,0.2966,0.2977,0.2979,0.298,0.2974,0.2971,0.299,0.2993,0.2997,0.3142,0.3,0.3002,0.3003,0.3225,0.3231,0.3236,0,0,0,0,0,0,0.2909,0.2917,0.298,0.2951,0.296,0.2968,0.2981,0.2979,0.2989,0.2992,0.299,0.2986,0.2989,0.2993,0.306,0.3139,0.3003,0.3005,0.322,0.3227,0.3233,0.3379,0,0,0,0,0,0,0.2906,0.2916,0.2928,0.2952,0.2962,0.304,0.2983,0.2982,0.3003,0.2998,0.3002,0.3001,0.2987,0.3057,0.3062,0.314,0.3007,0.3214,0.3223,0.3231,0.3369,0.339,0.3409,0,0,0,0,0,0.2902,0.2933,0.2929,0.2938,0.2978,0.3043,0.3049,0.3043,0.3006,0.3037,0.3044,0.3001,0.3114,0.3062,0.3068,0.3148,0.321,0.3221,0.323,0.336,0.3386,0.3408,0,0,0,0,0,0,0.2898,0.2933,0.2928,0.2968,0.3014,0.3038,0.3065,0.3056,0.3083,0.3071,0.3054,0.3058,0.3146,0.3136,0.3078,0.3243,0.3158,0.317,0.3255,0.3279,0.3299,0.3282,0.301,0,0,0,0,0,0.2906,0.2932,0.2975,0.301,0.3036,0.305,0.3072,0.3073,0.31,0.3107,0.3114,0.3138,0.3196,0.3224,0.3258,0.3348,0.3351,0.3408,0.3428,0.3444,0.3439,0.352,0.3546,0.3269,0.3269,0.3269,0,0,0.2914,0.2938,0.2953,0.3011,0.3038,0.3111,0.3058,0.3106,0.317,0.3109,0.319,0.3202,0.3235,0.3337,0.3377,0.3336,0.3537,0.3457,0.3471,0.3456,0.3534,0.356,0.3584,0.3276,0.3275,0.3274,0,0,0.2971,0.2971,0.3026,0.3074,0.3132,0.3152,0.3173,0.3213,0.3232,0.331,0.33,0.3358,0.3424,0.3478,0.3511,0.3665,0.3635,0.3685,0.3778,0.3859,0.3881,0.3901,0.3981,0.4007,0.3701,0.3701,0.3701,0,0.2984,0.3056,0.3057,0.3137,0.3191,0.318,0.3273,0.3306,0.3362,0.3403,0.3353,0.3488,0.3495,0.3655,0.3699,0.3709,0.3744,0.3679,0.3882,0.3901,0.3919,0.3996,0.4022,0.3709,0.3709,0.3708,0.3707,0,0.3098,0.3157,0.32,0.3293,0.3352,0.3425,0.3482,0.3523,0.3525,0.3561,0.3683,0.3702,0.3785,0.381,0.379,0.3951,0.3935,0.3891,0.3812,0.3955,0.4029,0.4053,0.3721,0.3718,0.3716,0.3714,0,0,0.3151,0.3255,0.3279,0.3338,0.3439,0.3498,0.3606,0.3715,0.3778,0.3824,0.3935,0.4022,0.4013,0.405,0.4061,0.4108,0.4261,0.4051,0.4052,0.4114,0.4455,0.4383,0.4402,0.4253,0.4257,0.426,0.4471,0,0.3254,0.34,0.3441,0.3595,0.368,0.3708,0.3814,0.3897,0.394,0.4035,0.4081,0.4182,0.4123,0.4165,0.4221,0.423,0.4326,0.4208,0.432,0.4323,0.4227,0.4428,0.4262,0.4429,0.4494,0.4498,0.4501,0,0.3396,0.3462,0.362,0.3736,0.3779,0.3865,0.3999,0.4091,0.4211,0.4243,0.4343,0.4367,0.4488,0.4388,0.4527,0.4455,0.4484,0.4476,0.4484,0.437,0.4296,0.4291,0.447,0.4375,0.4537,0.4535,0.4532,0,0.346,0.3607,0.3723,0.3771,0.3897,0.3967,0.4037,0.4159,0.4203,0.4385,0.4413,0.458,0.4611,0.4697,0.4688,0.4628,0.4801,0.4726,0.4717,0.4712,0.4565,0.454,0.464,0.4865,0.4865,0.4864,0.4863,0,0.3578,0.3674,0.375,0.3814,0.3909,0.4023,0.4122,0.4206,0.4319,0.438,0.4526,0.4577,0.4672,0.4762,0.4789,0.4836,0.4916,0.4775,0.4777,0.4617,0.4595,0.4492,0.4448,0.4872,0.487,0.4869,0.4867,0,0.364,0.371,0.3808,0.3916,0.3939,0.4007,0.4072,0.4119,0.4276,0.4357,0.4416,0.4569,0.4703,0.482,0.4938,0.4922,0.4883,0.5015,0.482,0.4793,0.4632,0.4602,0.4527,0.4386,0.5041,0.5041,0.5041,0,0.3671,0.374,0.3811,0.3795,0.3831,0.3904,0.3918,0.4064,0.4111,0.4319,0.4353,0.4535,0.4627,0.4827,0.4886,0.5031,0.4885,0.4928,0.4771,0.4646,0.4616,0.4424,0.4296,0.4667,0.4663,0.4661,0.4658,0,0.3658,0.3688,0.371,0.3717,0.372,0.3718,0.3785,0.3807,0.3997,0.4082,0.4206,0.4315,0.4543,0.4593,0.4804,0.4852,0.4694,0.4871,0.4804,0.4397,0.4134,0.3989,0.4512,0.4634,0.4637,0.4638,0.464,0.4641,0.3562,0.3563,0.3583,0.3585,0.3565,0.3557,0.3534,0.3613,0.3681,0.3821,0.3991,0.4104,0.432,0.4569,0.46,0.4569,0.4522,0.445,0.4453,0.4292,0.4051,0.4521,0.4588,0.459,0.4592,0.4594,0.4595,0,0.3435,0.3452,0.3432,0.3412,0.3352,0.3417,0.3434,0.3406,0.3437,0.3604,0.3706,0.3885,0.4023,0.4196,0.4308,0.419,0.398,0.4099,0.3807,0.372,0.4219,0.4095,0.3981,0.3981,0.3981,0.3981,0.3981,0.3982,0.3345,0.3311,0.3346,0.3226,0.3201,0.3114,0.311,0.3091,0.3176,0.323,0.331,0.346,0.3802,0.4084,0.4052,0.3952,0.3654,0.3509,0.3491,0.388,0.3912,0.3942,0.3815,0.3645,0.3644,0.2803,0.2797,0.2793]},{"header":{"parameterUnit":"m.s-1","parameterCategory":2,"la1":30.2991,"la2":30.254,"lo1":-89.0895,"lo2":-89.0444,"dy":0.0017,"dx":0.0017,"nx":28,"ny":28,"refTime":"2025-03-17T21:00:00:Z","depth":"0","parameterNumber":3,"parameterNumberName":"V-component_of_CURRENTS"},"data":[0,0,0,0,0,0,0,0,0,0,0,0,0,0,0,0,0,0,0,0,0,0,0,0,0,0,0,0,0,0,0,0,0,0,0,0,0,0,0,0,0,0,0,0,0,0,0,0,0,0,0,0,0,0,0,0,0,0,-0.2149,-0.2149,0,-0.2189,-0.2189,-0.2189,-0.2213,-0.2213,-0.2214,-0.2214,-0.2198,-0.2197,-0.2196,0,0,0,0,0,0,0,0,0,0,0,0,0,-0.2065,-0.2066,-0.2148,-0.2149,-0.215,-0.2189,-0.2189,-0.2189,-0.2212,-0.2213,-0.2214,-0.2214,-0.2199,-0.2197,-0.2196,0,0,0,0,0,0,0,0,0,0,0,0,0,-0.2098,-0.2067,-0.2148,-0.217,-0.2173,-0.2189,-0.2189,-0.2189,-0.2212,-0.2213,-0.2214,-0.2215,-0.2199,-0.2198,-0.2196,-0.2172,0,0,-0.2192,-0.2191,0,0,0,0,0,0,0,0,-0.2096,-0.2101,-0.2166,-0.2169,-0.2172,-0.2201,-0.2154,-0.2182,-0.2212,-0.2192,-0.2214,-0.2215,-0.2196,-0.2195,-0.2195,-0.2171,-0.217,-0.2192,-0.2191,-0.219,-0.219,0,0,0,0,0,0,0,-0.2094,-0.2099,-0.216,-0.2167,-0.2171,-0.2169,-0.2175,-0.2159,-0.2185,-0.2194,-0.2197,-0.2209,-0.2197,-0.2196,-0.2195,-0.217,-0.2192,-0.2191,-0.219,-0.2189,-0.2025,-0.2021,0,0,0,0,0,0,-0.21,-0.2097,-0.2158,-0.2161,-0.2141,-0.2171,-0.2176,-0.2187,-0.2186,-0.2189,-0.2208,-0.221,-0.2198,-0.2196,-0.2194,-0.2079,-0.219,-0.2189,-0.2188,-0.2028,-0.2024,-0.202,0,0,0,0,0,0,-0.2097,-0.2104,-0.2157,-0.2134,-0.2141,-0.2172,-0.2183,-0.2187,-0.2187,-0.2198,-0.2199,-0.2205,-0.2199,-0.2196,-0.2155,-0.2082,-0.2189,-0.2187,-0.2032,-0.2027,-0.2022,-0.1904,0,0,0,0,0,0,-0.2095,-0.2103,-0.2103,-0.2134,-0.2143,-0.2151,-0.2183,-0.2188,-0.2196,-0.2198,-0.2195,-0.2195,-0.2199,-0.2157,-0.2154,-0.2082,-0.2186,-0.2037,-0.203,-0.2024,-0.1912,-0.1895,-0.1881,0,0,0,0,0,-0.2092,-0.2083,-0.2103,-0.2111,-0.2145,-0.215,-0.2152,-0.2175,-0.2195,-0.218,-0.2171,-0.2195,-0.2112,-0.2154,-0.215,-0.2077,-0.204,-0.2032,-0.2024,-0.192,-0.1899,-0.1881,0,0,0,0,0,0,-0.204,-0.2086,-0.2109,-0.2113,-0.2128,-0.2156,-0.2144,-0.2169,-0.2153,-0.2148,-0.2165,-0.2162,-0.2096,-0.2102,-0.2148,-0.2006,-0.2073,-0.2064,-0.1995,-0.1975,-0.196,-0.1913,-0.2185,0,0,0,0,0,-0.2033,-0.2036,-0.208,-0.2076,-0.2084,-0.2115,-0.212,-0.2134,-0.2134,-0.213,-0.2125,-0.21,-0.2059,-0.2034,-0.2008,-0.194,-0.1925,-0.1883,-0.1867,-0.1854,-0.181,-0.1758,-0.1733,-0.1994,-0.1994,-0.1994,0,0,-0.2009,-0.2035,-0.2036,-0.2065,-0.2077,-0.2036,-0.2117,-0.2112,-0.2061,-0.2127,-0.2046,-0.2055,-0.2031,-0.1948,-0.1916,-0.1944,-0.1766,-0.1844,-0.1833,-0.1796,-0.1747,-0.1722,-0.1699,-0.1988,-0.1989,-0.199,0,0,-0.1931,-0.1988,-0.1947,-0.1953,-0.1971,-0.1984,-0.1981,-0.1999,-0.1994,-0.1942,-0.1956,-0.1911,-0.1872,-0.1818,-0.1791,-0.1668,-0.1695,-0.1671,-0.154,-0.149,-0.1468,-0.1449,-0.1378,-0.1353,-0.1651,-0.1651,-0.165,0,-0.1891,-0.1845,-0.1932,-0.1884,-0.1855,-0.1948,-0.1864,-0.1876,-0.1871,-0.1829,-0.1894,-0.1777,-0.1789,-0.1639,-0.1608,-0.1627,-0.1611,-0.1622,-0.147,-0.1451,-0.1433,-0.1365,-0.134,-0.1644,-0.1645,-0.1645,-0.1646,0,-0.177,-0.1727,-0.1701,-0.1661,-0.1655,-0.1602,-0.1635,-0.161,-0.1631,-0.1631,-0.1532,-0.1549,-0.1471,-0.1472,-0.1511,-0.1367,-0.1399,-0.1471,-0.1524,-0.14,-0.1336,-0.1311,-0.1635,-0.1637,-0.1639,-0.1641,0,0,-0.1649,-0.1614,-0.1592,-0.1512,-0.1522,-0.1479,-0.1418,-0.1351,-0.1261,-0.1299,-0.1157,-0.1143,-0.1189,-0.1159,-0.1198,-0.1164,-0.1052,-0.1266,-0.1266,-0.1201,-0.0924,-0.0941,-0.0917,-0.1121,-0.1116,-0.1113,-0.0922,0,-0.1492,-0.1331,-0.1372,-0.1188,-0.109,-0.1153,-0.1072,-0.1043,-0.1042,-0.0946,-0.0983,-0.0891,-0.1061,-0.1013,-0.1012,-0.1049,-0.0985,-0.1094,-0.1045,-0.1041,-0.1079,-0.0888,-0.0906,-0.0739,-0.0899,-0.0895,-0.0892,0,-0.1311,-0.1223,-0.1021,-0.0894,-0.086,-0.0779,-0.064,-0.0587,-0.054,-0.0544,-0.0514,-0.0574,-0.0524,-0.0693,-0.0684,-0.076,-0.081,-0.0853,-0.0848,-0.0882,-0.1012,-0.089,-0.0689,-0.0919,-0.0855,-0.0858,-0.0861,0,-0.1094,-0.0953,-0.0766,-0.0726,-0.0628,-0.0533,-0.0481,-0.0431,-0.0351,-0.0275,-0.0203,-0.0224,-0.0189,-0.0283,-0.0453,-0.0555,-0.0435,-0.0584,-0.0613,-0.0616,-0.0622,-0.0632,-0.0639,-0.0504,-0.0504,-0.0505,-0.0505,0,-0.0866,-0.0702,-0.0641,-0.0524,-0.0303,-0.0318,-0.0106,-0.0073,0.0009,0.0158,0.0024,0.0137,-0.0096,-0.0109,-0.029,-0.0363,-0.0308,-0.0515,-0.0542,-0.058,-0.0588,-0.0788,-0.0946,-0.0498,-0.0499,-0.0501,-0.0502,0,-0.0614,-0.0582,-0.0359,-0.0232,-0.0183,-0.0018,0.0101,0.0233,0.0277,0.0479,0.0514,0.0451,0.0411,0.0211,0.0102,-0.0111,-0.031,-0.0222,-0.0244,-0.0279,-0.0589,-0.0739,-0.0718,-0.0808,-0.0219,-0.0218,-0.0217,0,-0.0443,-0.031,-0.0141,-0.0037,0.0037,0.0221,0.033,0.0381,0.051,0.0677,0.0808,0.0818,0.0848,0.0666,0.0307,0.0085,-0.0172,-0.0087,-0.0287,-0.0529,-0.0717,-0.0837,-0.0924,-0.0235,-0.0235,-0.0234,-0.0234,0,-0.0137,-0.0107,0.0033,0.023,0.0374,0.0534,0.0703,0.084,0.093,0.1094,0.1291,0.1341,0.1131,0.0852,0.0497,0.0285,-0.0278,-0.0084,-0.0318,-0.068,-0.0819,-0.0946,-0.0439,-0.0229,-0.0229,-0.023,-0.023,-0.023,0.0069,0.0194,0.0318,0.0507,0.0656,0.0844,0.0997,0.1164,0.1399,0.1666,0.1662,0.1793,0.1323,0.0804,0.0473,-0.0182,-0.0211,-0.0421,-0.0558,-0.0635,-0.0796,-0.0261,-0.012,-0.012,-0.012,-0.012,-0.0119,0,0.0308,0.0394,0.0577,0.0773,0.0943,0.0976,0.1232,0.1384,0.1674,0.1925,0.2099,0.1962,0.1396,0.0779,-0.011,-0.0584,-0.0793,-0.0847,-0.1046,-0.1097,-0.0587,-0.067,-0.0661,-0.0661,-0.0661,-0.0661,-0.0661,-0.066,0.0445,0.0624,0.068,0.0976,0.1106,0.1332,0.1478,0.1726,0.1942,0.2262,0.2366,0.24,0.1899,0.0277,-0.0805,-0.1059,-0.1434,-0.1503,-0.1653,-0.138,-0.1353,-0.1328,-0.1443,-0.1596,-0.1597,-0.2123,-0.2128,-0.2133]}],[{"header":{"parameterUnit":"m.s-1","parameterCategory":2,"la1":30.2991,"la2":30.254,"lo1":-89.0895,"lo2":-89.0444,"dy":0.0017,"dx":0.0017,"nx":28,"ny":28,"refTime":"2025-03-17T21:00:00:Z","depth":"2","parameterNumber":2,"parameterNumberName":"U-component_of_CURRENTS"},"data":[0,0,0,0,0,0,0,0,0,0,0,0,0,0,0,0,0,0,0,0,0,0,0,0,0,0,0,0,0,0,0,0,0,0,0,0,0,0,0,0,0,0,0,0,0,0,0,0,0,0,0,0,0,0,0,0,0,0,0.2398,0.2399,0,0.2437,0.2437,0.2437,0.2456,0.2456,0.2456,0.2456,0.2546,0.2548,0.255,0,0,0,0,0,0,0,0,0,0,0,0,0,0.2329,0.233,0.2398,0.2399,0.2399,0.2437,0.2437,0.2437,0.2456,0.2456,0.2456,0.2457,0.2545,0.2548,0.255,0,0,0,0,0,0,0,0,0,0,0,0,0,0.2361,0.2331,0.2398,0.2415,0.2417,0.2437,0.2437,0.2438,0.2456,0.2456,0.2456,0.2457,0.2544,0.2547,0.2551,0.2566,0,0,0.2561,0.2562,0,0,0,0,0,0,0,0,0.2359,0.2363,0.2411,0.2414,0.2416,0.2444,0.2446,0.2484,0.2456,0.2439,0.2456,0.2457,0.2518,0.2523,0.2526,0.257,0.2574,0.2561,0.2563,0.2565,0.2566,0,0,0,0,0,0,0,0.2357,0.2361,0.2411,0.2412,0.2415,0.2417,0.2421,0.2453,0.2475,0.244,0.2442,0.245,0.2519,0.2523,0.2528,0.2575,0.2561,0.2564,0.2566,0.2567,0.2764,0.2767,0,0,0,0,0,0,0.2357,0.2359,0.241,0.2413,0.239,0.2418,0.2423,0.2433,0.2474,0.2481,0.245,0.2451,0.2517,0.2525,0.2532,0.2633,0.2565,0.2568,0.257,0.2761,0.2765,0.2769,0,0,0,0,0,0,0.2355,0.2361,0.2408,0.2388,0.2395,0.2419,0.243,0.2433,0.2456,0.2481,0.2488,0.247,0.2517,0.2527,0.2634,0.2634,0.2569,0.2572,0.2757,0.2762,0.2767,0.2784,0,0,0,0,0,0,0.2353,0.236,0.2385,0.2388,0.2396,0.2441,0.243,0.2434,0.246,0.2462,0.2501,0.2508,0.2518,0.263,0.2637,0.2637,0.2575,0.2753,0.276,0.2765,0.278,0.2789,0.2797,0,0,0,0,0,0.235,0.237,0.2386,0.2393,0.2424,0.2443,0.2447,0.2463,0.2461,0.2481,0.2548,0.2508,0.2672,0.2637,0.2645,0.2644,0.275,0.2758,0.2765,0.2776,0.2787,0.2797,0,0,0,0,0,0,0.234,0.2374,0.2391,0.2419,0.2443,0.2447,0.2466,0.2474,0.2535,0.2555,0.2568,0.2583,0.2656,0.2678,0.2638,0.2727,0.2696,0.2705,0.2701,0.2712,0.2721,0.2771,0.2578,0,0,0,0,0,0.2354,0.2386,0.241,0.2434,0.2447,0.2461,0.2476,0.2495,0.2538,0.2562,0.2598,0.265,0.2687,0.2727,0.2762,0.2834,0.2864,0.2839,0.2847,0.2854,0.2907,0.2949,0.2966,0.2792,0.2792,0.2792,0,0,0.2355,0.238,0.2398,0.2437,0.2452,0.248,0.247,0.2505,0.2546,0.2566,0.2649,0.2676,0.2714,0.2785,0.2818,0.2809,0.2923,0.2863,0.2868,0.2919,0.2959,0.2975,0.299,0.2797,0.2797,0.2796,0,0,0.2371,0.2395,0.2433,0.2463,0.2509,0.2511,0.2526,0.2562,0.2598,0.2688,0.27,0.2769,0.283,0.2867,0.2886,0.2978,0.2955,0.2963,0.306,0.3098,0.3112,0.3124,0.3185,0.3202,0.2981,0.2981,0.2981,0,0.2392,0.2424,0.2444,0.2491,0.2531,0.2525,0.2579,0.2598,0.2676,0.2737,0.2729,0.2857,0.287,0.296,0.2997,0.2991,0.3027,0.2998,0.3105,0.3119,0.3131,0.319,0.3209,0.2982,0.2982,0.2982,0.2982,0,0.2429,0.2472,0.2487,0.2547,0.2595,0.263,0.2672,0.2726,0.2759,0.2797,0.2912,0.2958,0.3041,0.303,0.3048,0.3141,0.3141,0.3089,0.3065,0.3149,0.3207,0.3226,0.2985,0.2984,0.2984,0.2983,0,0,0.2434,0.2508,0.2513,0.2571,0.264,0.2677,0.2754,0.2834,0.2893,0.2965,0.3067,0.3136,0.3163,0.3195,0.3199,0.3258,0.3355,0.3235,0.3236,0.3275,0.3474,0.3372,0.3384,0.3311,0.3315,0.3317,0.3476,0,0.2464,0.255,0.2591,0.2679,0.2732,0.2792,0.2859,0.2947,0.3004,0.3091,0.3154,0.3234,0.3213,0.3262,0.3313,0.3342,0.3412,0.332,0.3409,0.3414,0.3293,0.3404,0.3148,0.326,0.3495,0.3499,0.3501,0,0.2473,0.2549,0.2651,0.2774,0.2806,0.2858,0.2995,0.3059,0.3167,0.323,0.3327,0.3362,0.348,0.3423,0.3552,0.3496,0.3517,0.3534,0.3537,0.3462,0.3349,0.3219,0.3287,0.3534,0.3531,0.3529,0.3527,0,0.2465,0.2573,0.2662,0.2708,0.2849,0.2929,0.2986,0.311,0.3185,0.3318,0.3386,0.3506,0.3567,0.3629,0.3663,0.3626,0.3783,0.3709,0.3652,0.3645,0.3461,0.3431,0.3818,0.3818,0.3818,0.3817,0.3817,0,0.2472,0.2546,0.2656,0.2727,0.2827,0.2941,0.3056,0.313,0.3257,0.3337,0.3442,0.3531,0.3623,0.3705,0.3728,0.3759,0.3826,0.3725,0.3692,0.3461,0.343,0.3688,0.367,0.3823,0.3822,0.3821,0.382,0,0.2454,0.2523,0.2629,0.2785,0.2829,0.29,0.3052,0.3111,0.3252,0.336,0.3416,0.3581,0.3687,0.3757,0.3862,0.3824,0.387,0.3856,0.3594,0.3528,0.3703,0.3686,0.3846,0.3844,0.3843,0.3841,0.384,0,0.2445,0.2504,0.2645,0.2682,0.2753,0.2866,0.2922,0.3077,0.3141,0.3375,0.3408,0.3587,0.3646,0.3775,0.3779,0.382,0.3857,0.3591,0.3468,0.3761,0.3713,0.3698,0.3683,0.3243,0.3237,0.3232,0.3228,0,0.2456,0.2499,0.2576,0.2642,0.2698,0.277,0.2868,0.292,0.3096,0.3184,0.3306,0.3395,0.3553,0.3485,0.3557,0.3542,0.3562,0.3492,0.3882,0.3256,0.3199,0.3149,0.3153,0.3185,0.3189,0.3192,0.3195,0.3197,0.2435,0.244,0.2516,0.2561,0.2612,0.2644,0.2652,0.2744,0.2812,0.2914,0.3098,0.3132,0.324,0.3212,0.3149,0.3127,0.336,0.3222,0.3235,0.3253,0.3135,0.3076,0.302,0.3023,0.3026,0.3029,0.3031,0,0.2368,0.2391,0.2432,0.2455,0.2437,0.253,0.2582,0.2545,0.2533,0.2681,0.2748,0.2605,0.2621,0.2719,0.2634,0.2667,0.2624,0.2555,0.247,0.2518,0.256,0.2402,0.2095,0.2091,0.2088,0.2085,0,0,0.2356,0.2332,0.2334,0.227,0.2288,0.2245,0.224,0.2186,0.2244,0.2204,0.2228,0.2487,0.2641,0.2307,0.2307,0.2174,0.2312,0.21,0.2866,0.2814,0.285,0.298,0.2796,0,0,0,0,0]},{"header":{"parameterUnit":"m.s-1","parameterCategory":2,"la1":30.2991,"la2":30.254,"lo1":-89.0895,"lo2":-89.0444,"dy":0.0017,"dx":0.0017,"nx":28,"ny":28,"refTime":"2025-03-17T21:00:00:Z","depth":"2","parameterNumber":3,"parameterNumberName":"V-component_of_CURRENTS"},"data":[0,0,0,0,0,0,0,0,0,0,0,0,0,0,0,0,0,0,0,0,0,0,0,0,0,0,0,0,0,0,0,0,0,0,0,0,0,0,0,0,0,0,0,0,0,0,0,0,0,0,0,0,0,0,0,0,0,0,0.0554,0.0553,0,0.0479,0.0477,0.0476,0.0376,0.0375,0.0373,0.0372,0.0214,0.0211,0.0208,0,0,0,0,0,0,0,0,0,0,0,0,0,0.0562,0.0562,0.0554,0.0553,0.0553,0.0479,0.0477,0.0476,0.0376,0.0375,0.0373,0.0372,0.0215,0.0211,0.0208,0,0,0,0,0,0,0,0,0,0,0,0,0,0.0526,0.0562,0.0554,0.0497,0.0491,0.0479,0.0477,0.0476,0.0377,0.0375,0.0373,0.0371,0.0216,0.0212,0.0207,0.022,0,0,0.0194,0.0192,0,0,0,0,0,0,0,0,0.0529,0.0526,0.0506,0.0501,0.0494,0.0438,0.0422,0.0387,0.0377,0.0416,0.0372,0.037,0.0285,0.0275,0.0261,0.0212,0.0206,0.0193,0.019,0.0189,0.0187,0,0,0,0,0,0,0,0.0531,0.0528,0.052,0.0505,0.0498,0.0458,0.0451,0.0415,0.0359,0.0413,0.0406,0.0404,0.028,0.0266,0.0256,0.0203,0.0193,0.0189,0.0187,0.0185,0.0064,0.0064,0,0,0,0,0,0,0.0553,0.0531,0.0523,0.0519,0.0511,0.046,0.0451,0.0455,0.036,0.0346,0.0406,0.04,0.0274,0.0262,0.025,0.0203,0.0189,0.0184,0.0182,0.0065,0.0064,0.0063,0,0,0,0,0,0,0.0553,0.0553,0.0526,0.0525,0.0519,0.0463,0.0467,0.0455,0.0432,0.0357,0.0339,0.0395,0.0272,0.0257,0.0196,0.0198,0.0182,0.0178,0.0065,0.0064,0.0064,0.0145,0,0,0,0,0,0,0.0554,0.0554,0.0559,0.0527,0.052,0.0523,0.0469,0.0455,0.0436,0.0427,0.0342,0.0326,0.0269,0.0203,0.0191,0.0192,0.0175,0.0066,0.0065,0.0064,0.0143,0.0147,0.015,0,0,0,0,0,0.0555,0.058,0.056,0.0559,0.0532,0.0524,0.0517,0.0466,0.0438,0.0436,0.0361,0.0328,0.0188,0.0199,0.0185,0.0185,0.0066,0.0065,0.0064,0.0141,0.0146,0.015,0,0,0,0,0,0,0.0583,0.0571,0.0549,0.0567,0.0547,0.0508,0.0508,0.0476,0.042,0.0403,0.0325,0.0303,0.0257,0.0207,0.0221,0.0144,0.0121,0.0117,0.0184,0.0188,0.0192,0.016,0.0171,0,0,0,0,0,0.0597,0.061,0.0586,0.0598,0.0596,0.0553,0.0542,0.051,0.0462,0.0436,0.0369,0.0297,0.0246,0.0205,0.0157,0.0116,0.007,0.0103,0.0107,0.0111,0.0073,0.0029,0.0026,0.0059,0.0059,0.0059,0,0,0.0613,0.0606,0.0614,0.0605,0.0586,0.0588,0.054,0.0534,0.0517,0.0429,0.0376,0.0319,0.0242,0.0192,0.0166,0.0145,0.0082,0.0109,0.0113,0.0072,0.0028,0.0025,0.0022,0.0059,0.0059,0.0059,0,0,0.064,0.0648,0.0655,0.0656,0.0637,0.0618,0.0621,0.0578,0.054,0.0494,0.0424,0.0346,0.0279,0.0201,0.0161,0.0153,0.0118,0.0158,0.0135,0.0096,0.0093,0.0089,0.0058,0.0051,0.0145,0.0145,0.0145,0,0.0648,0.0665,0.0657,0.0666,0.0659,0.0638,0.0634,0.0618,0.055,0.0512,0.0483,0.0345,0.0272,0.0197,0.0169,0.016,0.0141,0.0134,0.0103,0.0098,0.0093,0.0061,0.0052,0.0149,0.0148,0.0148,0.0147,0,0.0681,0.0694,0.0709,0.0709,0.0697,0.0712,0.0682,0.0667,0.0622,0.0575,0.0493,0.0385,0.0292,0.0265,0.02,0.0131,0.0134,0.0133,0.0099,0.0095,0.0061,0.0051,0.0154,0.0153,0.0152,0.0151,0,0,0.0688,0.0721,0.0726,0.0727,0.0724,0.072,0.0712,0.0679,0.0676,0.0589,0.0542,0.0404,0.034,0.0284,0.021,0.0129,0.0071,0.0103,0.0099,0.0083,-0.0002,-0.0016,-0.0029,0.0087,0.0085,0.0083,0.0,0,0.0704,0.0734,0.0735,0.0755,0.076,0.075,0.0746,0.0712,0.0677,0.0644,0.052,0.0463,0.0361,0.0318,0.0221,0.0117,0.0042,0.0093,-0.001,-0.0015,-0.0016,-0.0043,-0.0005,-0.0078,-0.0011,-0.0012,-0.0014,0,0.073,0.0734,0.0749,0.0765,0.0767,0.0778,0.0766,0.0767,0.073,0.0698,0.0614,0.0545,0.0398,0.0336,0.0131,0.0181,0.0074,-0.0014,-0.0017,-0.0081,-0.005,-0.0073,-0.0101,-0.0032,-0.003,-0.0029,-0.0028,0,0.0718,0.0755,0.0762,0.0773,0.0781,0.0776,0.079,0.0767,0.0784,0.0742,0.0745,0.059,0.0526,0.0361,0.0156,0.0155,-0.0046,-0.0047,-0.0162,-0.0162,-0.0187,-0.0186,-0.0195,-0.0195,-0.0194,-0.0194,-0.0194,0,0.0738,0.0746,0.0772,0.0772,0.0806,0.0786,0.0825,0.0834,0.0843,0.0885,0.0775,0.0765,0.0528,0.0393,0.0198,-0.0018,-0.0003,-0.0195,-0.0199,-0.0154,-0.015,-0.0162,-0.0158,-0.0197,-0.0197,-0.0196,-0.0196,0,0.0728,0.0746,0.0771,0.0786,0.0802,0.0829,0.0901,0.0948,0.0943,0.0999,0.0993,0.0893,0.072,0.0483,0.0223,0.0056,-0.0155,-0.023,-0.0165,-0.0161,-0.0255,-0.0245,-0.037,-0.0371,-0.0373,-0.0374,-0.0375,0,0.0735,0.0739,0.0796,0.0837,0.0851,0.0905,0.0963,0.0999,0.1067,0.1085,0.1124,0.0981,0.0897,0.0513,0.0193,-0.0126,-0.0166,-0.0287,-0.0317,-0.029,-0.028,-0.0268,-0.0257,-0.0302,-0.0302,-0.0302,-0.0302,0,0.0726,0.0753,0.078,0.0877,0.0946,0.1046,0.1132,0.1206,0.1264,0.1293,0.1315,0.1241,0.0899,0.0576,0.0152,-0.0058,-0.0238,-0.0301,-0.029,-0.026,-0.0232,-0.022,-0.021,-0.0304,-0.0304,-0.0303,-0.0303,-0.0303,0.0738,0.0785,0.0842,0.0941,0.1039,0.1175,0.1268,0.1361,0.1462,0.153,0.1461,0.1364,0.1014,0.0462,0.01,-0.0263,-0.0258,-0.0379,-0.0375,-0.0373,-0.0348,-0.0323,-0.0407,-0.0407,-0.0407,-0.0408,-0.0408,0,0.076,0.0814,0.0905,0.103,0.1153,0.12,0.1377,0.1467,0.1587,0.1633,0.1621,0.1284,0.0922,0.0528,-0.0015,-0.0347,-0.0364,-0.0439,-0.0387,-0.0383,-0.038,-0.0354,-0.0415,-0.0416,-0.0417,-0.0418,0,0,0.0757,0.0841,0.0902,0.1097,0.1199,0.1379,0.1491,0.1605,0.1682,0.1701,0.1648,0.1539,0.1049,0.0661,0.0205,-0.0102,-0.016,-0.0158,-0.0116,0.0004,0.0012,-0.0311,-0.0262,0,0,0,0,0]}],[{"header":{"parameterUnit":"m.s-1","parameterCategory":2,"la1":30.2991,"la2":30.254,"lo1":-89.0895,"lo2":-89.0444,"dy":0.0017,"dx":0.0017,"nx":28,"ny":28,"refTime":"2025-03-17T21:00:00:Z","depth":"4","parameterNumber":2,"parameterNumberName":"U-component_of_CURRENTS"},"data":[0,0,0,0,0,0,0,0,0,0,0,0,0,0,0,0,0,0,0,0,0,0,0,0,0,0,0,0,0,0,0,0,0,0,0,0,0,0,0,0,0,0,0,0,0,0,0,0,0,0,0,0,0,0,0,0,0,0,0.124,0.1242,0,0.1339,0.134,0.1341,0.1412,0.1412,0.1413,0.1414,0.1516,0.1518,0.152,0,0,0,0,0,0,0,0,0,0,0,0,0,0.1125,0.1126,0.124,0.1242,0.1243,0.1339,0.134,0.1342,0.1412,0.1412,0.1413,0.1414,0.1515,0.1518,0.152,0,0,0,0,0,0,0,0,0,0,0,0,0,0.1193,0.1127,0.124,0.129,0.1296,0.1339,0.134,0.1342,0.1411,0.1412,0.1414,0.1414,0.1514,0.1517,0.152,0.1519,0,0,0.153,0.1531,0,0,0,0,0,0,0,0,0.1189,0.1197,0.1282,0.1287,0.1293,0.1365,0.1337,0.1402,0.1411,0.1366,0.1414,0.1415,0.1466,0.1473,0.1488,0.1524,0.1528,0.153,0.1532,0.1533,0.1534,0,0,0,0,0,0,0,0.1184,0.1193,0.1278,0.1283,0.129,0.1313,0.1323,0.135,0.1408,0.137,0.1376,0.1389,0.1469,0.1484,0.149,0.153,0.153,0.1533,0.1535,0.1536,0.1658,0.1659,0,0,0,0,0,0,0.1173,0.1189,0.1275,0.1281,0.1244,0.1314,0.1326,0.134,0.1408,0.142,0.1388,0.1392,0.1478,0.1487,0.1494,0.1588,0.1533,0.1536,0.1538,0.1656,0.1658,0.1659,0,0,0,0,0,0,0.117,0.118,0.1271,0.1238,0.1252,0.1315,0.1331,0.1342,0.1385,0.1421,0.1433,0.1423,0.148,0.149,0.1538,0.1589,0.1538,0.1541,0.1655,0.1657,0.1659,0.1718,0,0,0,0,0,0,0.1166,0.1178,0.1195,0.1237,0.1253,0.1311,0.133,0.1343,0.139,0.1397,0.1455,0.1464,0.1481,0.1533,0.1541,0.1593,0.1543,0.1653,0.1656,0.1658,0.1714,0.1721,0.1728,0,0,0,0,0,0.1162,0.1178,0.1196,0.1207,0.1271,0.1312,0.1322,0.1369,0.1391,0.1412,0.145,0.1464,0.1556,0.1537,0.1546,0.1599,0.1652,0.1655,0.1658,0.1711,0.172,0.1728,0,0,0,0,0,0,0.1141,0.1188,0.1208,0.124,0.128,0.1325,0.1356,0.1381,0.1429,0.1447,0.1474,0.1486,0.1552,0.1558,0.1536,0.164,0.1609,0.1614,0.1646,0.1655,0.1661,0.1673,0.1546,0,0,0,0,0,0.1142,0.117,0.1212,0.1243,0.1265,0.1313,0.1341,0.1373,0.1415,0.1439,0.1484,0.1527,0.1566,0.1595,0.1629,0.1679,0.17,0.172,0.1727,0.1733,0.1748,0.1819,0.1834,0.1669,0.1669,0.1669,0,0,0.1142,0.1175,0.1191,0.1242,0.1281,0.1319,0.1334,0.1386,0.1428,0.1441,0.1523,0.1555,0.1583,0.1647,0.1677,0.1663,0.1789,0.1737,0.1742,0.1754,0.1824,0.184,0.1854,0.1671,0.1671,0.1671,0,0,0.1151,0.1188,0.1211,0.1248,0.1309,0.1341,0.1359,0.1422,0.1464,0.1528,0.1555,0.1616,0.1676,0.1716,0.1737,0.1799,0.1821,0.1814,0.1866,0.1935,0.1949,0.1962,0.2002,0.2018,0.182,0.182,0.182,0,0.115,0.1193,0.1225,0.1261,0.1302,0.1352,0.1391,0.1435,0.1511,0.1556,0.1564,0.1689,0.1713,0.1795,0.1819,0.182,0.1851,0.1832,0.1946,0.1959,0.1971,0.2009,0.2026,0.1823,0.1823,0.1822,0.1822,0,0.1173,0.1219,0.1242,0.1305,0.1343,0.1394,0.1451,0.1512,0.1571,0.1621,0.1728,0.1771,0.1851,0.1867,0.1863,0.1968,0.1958,0.1945,0.1926,0.1992,0.2027,0.2044,0.1828,0.1826,0.1825,0.1825,0,0,0.1145,0.1238,0.1252,0.1298,0.1379,0.1416,0.1491,0.1577,0.1653,0.1731,0.1833,0.1903,0.195,0.1977,0.1997,0.2051,0.2157,0.2041,0.2043,0.2084,0.2302,0.2157,0.2161,0.2171,0.2174,0.2177,0.2288,0,0.1163,0.1233,0.1279,0.1364,0.1406,0.1481,0.1549,0.1633,0.172,0.1831,0.1899,0.2003,0.1984,0.2048,0.21,0.215,0.2206,0.2127,0.2229,0.2232,0.2099,0.2178,0.2188,0.23,0.2304,0.2307,0.2309,0,0.117,0.1224,0.1297,0.141,0.1438,0.1506,0.1644,0.171,0.1852,0.1926,0.2039,0.2101,0.2212,0.2183,0.2311,0.2267,0.2297,0.2318,0.2323,0.2181,0.2119,0.2223,0.2339,0.2337,0.2335,0.2333,0.2331,0,0.1133,0.124,0.1306,0.1344,0.1467,0.1542,0.1624,0.1756,0.1838,0.2012,0.21,0.2225,0.2319,0.2379,0.2428,0.2393,0.2549,0.2504,0.24,0.239,0.2459,0.2444,0.2601,0.2601,0.2601,0.2601,0.26,0,0.1127,0.1183,0.1311,0.1354,0.146,0.1546,0.1677,0.1782,0.1937,0.2038,0.2161,0.2258,0.2379,0.2471,0.2485,0.2496,0.2605,0.2429,0.242,0.2478,0.2464,0.2471,0.2454,0.2605,0.2604,0.2603,0.2602,0,0.1068,0.1147,0.1231,0.1385,0.1447,0.1523,0.1709,0.1786,0.1951,0.2093,0.2159,0.2333,0.2444,0.2528,0.2639,0.2565,0.2591,0.2567,0.2635,0.2624,0.2367,0.2353,0.2458,0.2454,0.2451,0.2448,0.2446,0,0.1036,0.1075,0.1243,0.1298,0.1384,0.1515,0.1595,0.178,0.1861,0.2107,0.2158,0.2347,0.2435,0.2475,0.2564,0.2601,0.2565,0.2558,0.2446,0.2378,0.2359,0.2349,0.234,0.2441,0.244,0.2439,0.2438,0,0.0975,0.1045,0.112,0.1235,0.1338,0.1432,0.1577,0.1638,0.1832,0.2003,0.2123,0.2205,0.2325,0.2392,0.2451,0.2461,0.2548,0.2523,0.2528,0.2422,0.2358,0.234,0.2334,0.2426,0.2428,0.2429,0.243,0,0.0927,0.0965,0.1065,0.1156,0.1262,0.1324,0.1416,0.1528,0.164,0.1917,0.1951,0.2138,0.2303,0.2322,0.237,0.2381,0.2332,0.2238,0.2257,0.2271,0.2157,0.2044,0.2029,0,0,0,0,0,0.0871,0.0907,0.0978,0.1074,0.1159,0.1228,0.1382,0.1467,0.1675,0.1712,0.1836,0.1939,0.204,0.2133,0.2106,0.2272,0.2327,0.223,0.2224,0.2362,0.2376,0.2257,0,0,0,0,0,0,0.0844,0.0899,0.0941,0.0964,0.1012,0.1098,0.1191,0.1325,0.1362,0.1582,0.1645,0.1816,0.1934,0.2036,0.2067,0.2095,0.205,0.2352,0.2347,0.2355,0.2367,0.2378,0.226,0,0,0,0,0]},{"header":{"parameterUnit":"m.s-1","parameterCategory":2,"la1":30.2991,"la2":30.254,"lo1":-89.0895,"lo2":-89.0444,"dy":0.0017,"dx":0.0017,"nx":28,"ny":28,"refTime":"2025-03-17T21:00:00:Z","depth":"4","parameterNumber":3,"parameterNumberName":"V-component_of_CURRENTS"},"data":[0,0,0,0,0,0,0,0,0,0,0,0,0,0,0,0,0,0,0,0,0,0,0,0,0,0,0,0,0,0,0,0,0,0,0,0,0,0,0,0,0,0,0,0,0,0,0,0,0,0,0,0,0,0,0,0,0,0,0.0445,0.0445,0,0.0415,0.0414,0.0414,0.0385,0.0385,0.0385,0.0385,0.0343,0.0342,0.0342,0,0,0,0,0,0,0,0,0,0,0,0,0,0.0429,0.043,0.0445,0.0445,0.0445,0.0415,0.0414,0.0414,0.0385,0.0385,0.0385,0.0384,0.0344,0.0343,0.0342,0,0,0,0,0,0,0,0,0,0,0,0,0,0.042,0.043,0.0445,0.0428,0.0426,0.0415,0.0414,0.0413,0.0385,0.0385,0.0385,0.0384,0.0344,0.0343,0.0341,0.0341,0,0,0.0337,0.0337,0,0,0,0,0,0,0,0,0.0421,0.0421,0.043,0.0429,0.0427,0.0404,0.0393,0.0389,0.0386,0.04,0.0385,0.0384,0.0364,0.0361,0.0355,0.0339,0.0338,0.0337,0.0337,0.0336,0.0336,0,0,0,0,0,0,0,0.0422,0.0422,0.0432,0.043,0.0428,0.0404,0.0403,0.0392,0.0383,0.0398,0.0397,0.0395,0.0362,0.0356,0.0353,0.0337,0.0337,0.0336,0.0335,0.0335,0.0327,0.0327,0,0,0,0,0,0,0.0431,0.0423,0.0433,0.0431,0.0424,0.0405,0.0403,0.0411,0.0384,0.0379,0.0395,0.0394,0.0358,0.0355,0.0352,0.036,0.0336,0.0335,0.0334,0.0326,0.0327,0.0328,0,0,0,0,0,0,0.0431,0.0432,0.0434,0.0426,0.0425,0.0406,0.0415,0.0411,0.041,0.0381,0.0377,0.0399,0.0358,0.0354,0.0353,0.0358,0.0334,0.0333,0.0326,0.0327,0.0327,0.0369,0,0,0,0,0,0,0.043,0.0433,0.0444,0.0427,0.0426,0.0438,0.0415,0.041,0.0409,0.0407,0.0383,0.0378,0.0357,0.0355,0.0351,0.0355,0.0332,0.0325,0.0326,0.0327,0.0367,0.0372,0.0375,0,0,0,0,0,0.043,0.0449,0.0445,0.0447,0.0442,0.0439,0.0436,0.042,0.041,0.0416,0.04,0.0379,0.0359,0.0355,0.035,0.0354,0.0325,0.0326,0.0327,0.0366,0.0371,0.0375,0,0,0,0,0,0,0.0447,0.0448,0.0443,0.0461,0.0455,0.0435,0.0441,0.0428,0.042,0.0421,0.039,0.0385,0.0383,0.0367,0.0363,0.0355,0.0337,0.0337,0.0368,0.0372,0.0376,0.0374,0.0331,0,0,0,0,0,0.0457,0.0475,0.0464,0.0481,0.048,0.0462,0.046,0.0452,0.044,0.0436,0.0419,0.0401,0.0384,0.0379,0.0364,0.0365,0.0313,0.0363,0.0367,0.0371,0.0367,0.0286,0.0281,0.0332,0.0332,0.0332,0,0,0.047,0.0472,0.0482,0.0486,0.048,0.0487,0.046,0.0467,0.0471,0.0434,0.0439,0.0417,0.0388,0.0384,0.0382,0.0373,0.0331,0.0373,0.0376,0.037,0.0287,0.0281,0.0277,0.0333,0.0332,0.0332,0,0,0.0499,0.0505,0.0527,0.0526,0.0526,0.0516,0.0521,0.0509,0.0502,0.0507,0.0474,0.0453,0.0443,0.0411,0.0395,0.0413,0.0354,0.0416,0.0434,0.0356,0.035,0.0345,0.0277,0.0265,0.0418,0.0418,0.0418,0,0.0512,0.0539,0.0531,0.0547,0.0551,0.0532,0.0549,0.0541,0.053,0.0522,0.0519,0.0472,0.045,0.0418,0.0426,0.0419,0.037,0.0418,0.0359,0.0352,0.0346,0.0277,0.0263,0.0421,0.042,0.042,0.042,0,0.0551,0.0574,0.0587,0.0602,0.0604,0.062,0.0606,0.0608,0.0599,0.058,0.0556,0.0518,0.0485,0.0475,0.0459,0.0408,0.0386,0.037,0.0343,0.0343,0.0271,0.0256,0.0424,0.0423,0.0422,0.0422,0,0,0.0577,0.061,0.0615,0.063,0.0637,0.0641,0.0652,0.0645,0.0638,0.0621,0.0598,0.0564,0.0531,0.051,0.0474,0.0411,0.0327,0.0381,0.0375,0.0307,0.0156,0.0162,0.0146,0.0298,0.0295,0.0293,0.0125,0,0.0611,0.0652,0.066,0.0697,0.0713,0.0704,0.0709,0.0698,0.0678,0.0652,0.0596,0.0566,0.0546,0.0525,0.0461,0.0358,0.0289,0.0375,0.0171,0.0165,0.0165,0.0129,0.0286,0.0113,0.011,0.0107,0.0105,0,0.0644,0.0667,0.0711,0.0737,0.0744,0.0763,0.0759,0.0762,0.0717,0.0698,0.0652,0.0602,0.0519,0.0499,0.0317,0.0373,0.0272,0.0189,0.018,0.0159,0.0143,0.0112,0.0077,0.0079,0.0081,0.0083,0.0085,0,0.0656,0.0701,0.0739,0.075,0.0774,0.0792,0.0803,0.0777,0.0775,0.072,0.07,0.0598,0.054,0.0402,0.0255,0.0274,0.0042,0.004,-0.0053,-0.0054,-0.0028,-0.002,-0.0103,-0.0103,-0.0102,-0.0102,-0.0101,0,0.068,0.0708,0.0752,0.0774,0.081,0.0816,0.0841,0.0832,0.0809,0.0799,0.0725,0.0678,0.051,0.0371,0.0238,0.0047,0.0022,-0.0065,-0.0104,-0.0003,0.0009,-0.0039,-0.0029,-0.0108,-0.0107,-0.0105,-0.0104,0,0.0674,0.0709,0.0754,0.0801,0.0821,0.0843,0.0887,0.0891,0.087,0.085,0.0834,0.0713,0.0536,0.0361,0.0119,0.0025,-0.0159,-0.022,-0.0101,-0.0128,-0.0199,-0.0185,-0.0351,-0.0353,-0.0354,-0.0355,-0.0355,0,0.0667,0.0696,0.0774,0.0805,0.0834,0.0877,0.0904,0.092,0.0927,0.087,0.0853,0.0693,0.0596,0.0262,0.0078,-0.0193,-0.0217,-0.0313,-0.0253,-0.0207,-0.0229,-0.0212,-0.0197,-0.0357,-0.0357,-0.0358,-0.0358,0,0.0649,0.0691,0.0728,0.0802,0.0853,0.0904,0.0951,0.0962,0.0967,0.0953,0.0859,0.0698,0.0494,0.0259,0.0046,-0.0141,-0.0251,-0.0326,-0.0324,-0.0268,-0.0217,-0.0233,-0.0217,-0.0362,-0.0361,-0.0361,-0.0361,0,0.063,0.0654,0.0721,0.0779,0.0854,0.0908,0.0938,0.095,0.096,0.0919,0.0881,0.0681,0.0568,0.0282,0.0085,-0.0098,-0.0135,-0.0178,-0.0185,-0.0183,-0.007,0.0024,-0.0097,0,0,0,0,0,0.0601,0.0632,0.0689,0.0762,0.0842,0.089,0.0954,0.0977,0.0996,0.0941,0.092,0.074,0.0449,0.0314,0.013,0.0053,-0.0178,-0.0169,-0.0233,-0.0384,-0.0379,-0.0273,0,0,0,0,0,0,0.0581,0.0631,0.067,0.0741,0.0794,0.0876,0.0927,0.0939,0.0916,0.0909,0.0756,0.0699,0.0411,0.0553,0.0126,0.0069,0.0004,-0.03,-0.0304,-0.0386,-0.0382,-0.0378,-0.0268,0,0,0,0,0]}]]